Location: Aardam
(52.1667°N, 4.7667°E)
Time: 05:04:20
(UTC+00:00)

Daily predictions for brighter satellites

Satellite Brightness Start Highest point End
(mag) Time Altitude Azimuth Time Altitude Azimuth Time Altitude Azimuth
Okean 1 3.4 00:00:14 10° NNW 00:04:15 64° W 00:05:27 41° SSW
Cosmos 2285 Rocket 4.4 00:07:03 10° NNW 00:13:06 49° WSW 00:16:07 28° SSW
Cosmos 2333 Rocket 2.7 00:08:31 10° NW 00:13:49 42° WSW 00:16:01 29° SSW
Cosmos 2084 Rocket 4.3 00:10:38 10° NW 00:14:40 48° NE 00:18:51 10° ESE
Cosmos 494 Rocket 4.0 00:13:18 33° S 00:15:34 68° ESE 00:20:40 10° NNE
Cosmos 1302 Rocket 4.3 00:11:21 10° NNW 00:16:33 64° ENE 00:20:23 18° SE
Meteor 1-25 Rocket 4.5 00:18:08 26° SW 00:21:17 61° WNW 00:26:50 10° N
CZ-4C R/B 4.1 00:15:39 10° NW 00:21:44 40° NNE 00:28:59 10° E
Cosmos 2084 3.5 00:20:13 25° WSW 00:22:30 71° NW 00:26:45 10° NE
ATLAS 5 CENTAUR R/B 2.2 00:17:15 10° NW 00:22:37 85° SW 00:28:59 10° SE
Cosmos 2360 Rocket 3.8 00:19:30 10° WNW 00:23:23 19° W 00:25:10 17° SW
Cosmos 1452 Rocket 4.4 00:20:27 10° NW 00:25:08 33° WSW 00:26:57 26° SW
Cosmos 2242 Rocket 4.1 00:21:27 10° N 00:25:47 53° ENE 00:28:16 24° SE
Cosmos 1980 3.8 00:20:05 10° NNW 00:25:48 79° ENE 00:30:19 17° SE
PSLV R/B 3.9 00:21:15 10° N 00:26:01 74° WNW 00:28:18 31° SSW
Cosmos 1666 2.8 00:29:45 39° SSE 00:31:01 69° E 00:34:52 10° NNE
Meteor 1-14 Rocket 4.2 00:30:32 29° S 00:33:27 86° ESE 00:39:05 10° NNE
Cosmos 1378 3.5 00:31:07 10° N 00:34:46 57° ENE 00:36:24 29° SE
NOSS 2-2 (C) 4.4 00:35:06 10° NW 00:39:59 75° NE 00:46:52 10° SE
Resurs 1-4 Rocket 3.3 00:35:58 10° NNE 00:40:47 33° E 00:44:08 17° SSE
Cosmos 1536 4.1 00:40:02 21° SE 00:41:58 32° E 00:45:35 10° NNE
Meteor 1-13 Rocket 4.4 00:36:29 10° N 00:42:23 73° ENE 00:46:32 19° SSE
Cosmos 2297 Rocket 3.0 00:46:29 23° SSE 00:49:31 41° ESE 00:54:48 10° NE
Cosmos 2237 Rocket 2.1 00:44:40 10° NNW 00:50:22 78° WSW 00:54:35 19° SSE
Cosmos 1869 Rocket 4.4 00:53:48 22° SSE 00:56:21 44° E 01:00:38 10° NNE
Meteor 2-17 Rocket 4.4 00:54:55 26° SSW 00:58:35 81° WNW 01:04:40 10° N
Cosmos 2227 Rocket 3.1 00:56:52 20° SSE 01:00:08 38° ESE 01:05:19 10° NE
TSX-5 4.2 00:59:09 33° S 01:00:31 51° ESE 01:04:52 10° NE
USA 229 DEB 4.3 00:53:43 10° NW 01:00:34 44° WSW 01:05:34 20° S
USA 229 4.3 00:53:49 10° NW 01:00:40 45° WSW 01:05:44 20° S
Meteor 2-4 Rocket 4.3 00:56:26 10° NNW 01:02:05 46° W 01:05:16 24° SSW
EO 1 Del DPAF 3.6 00:58:35 10° N 01:02:14 54° WNW 01:03:46 30° SW
Cosmos 1709 Rocket 4.0 00:58:20 24° S 01:02:22 85° E 01:08:47 10° N
Cosmos 1470 Rocket 3.9 01:00:37 28° SW 01:02:37 53° WNW 01:06:52 10° N
NOSS 0 Rocket 4.4 01:02:14 10° NW 01:08:06 44° WSW 01:11:33 23° SSW
COSMOS 2487 4.4 01:07:03 14° W 01:08:56 21° NW 01:11:39 10° N
Cosmos 1933 Rocket 3.7 01:07:30 29° SSW 01:09:43 68° WNW 01:14:13 10° N
Cosmos 1745 Rocket 4.3 01:06:16 23° SW 01:10:10 56° WNW 01:16:21 10° N
UNK 3.9 01:06:32 17° SSE 01:10:11 73° ENE 01:14:52 10° NNW
COSMOS 2428 4.0 01:06:13 10° NW 01:10:43 24° WSW 01:12:40 20° SW
USA 267 3.9 01:04:20 10° ENE 01:10:44 59° N 01:17:08 10° WNW
Cosmos 1633 Rocket 4.5 01:10:54 18° WSW 01:13:15 28° WNW 01:17:02 10° N
SL-16 R/B 2.6 01:07:37 10° NNW 01:13:17 66° NE 01:18:55 10° SE
MOZ.5/SAFIR/RUBIN 5/SL-8 4.0 01:11:26 26° S 01:13:56 56° W 01:18:37 10° NNW
Lacrosse 5 3.3 01:12:35 19° SSE 01:14:40 24° SE 01:18:43 10° ENE
CZ-2D R/B 2.5 01:09:41 10° NNE 01:15:00 59° ESE 01:18:42 20° S
Okean 1-7 3.3 01:11:59 10° NNW 01:16:08 52° W 01:18:05 28° SSW
ADEOS Rocket 3.0 01:11:00 10° SSE 01:16:35 70° ENE 01:22:03 10° NNW
SL-16 R/B 2.5 01:13:31 15° SSE 01:18:48 85° WSW 01:25:03 10° NNW
COSMOS 2455 3.4 01:14:38 14° WSW 01:19:41 55° NW 01:25:37 10° NE
Cosmos 1544 3.1 01:18:15 30° S 01:19:57 77° E 01:23:36 10° NNE
Helios 1A 3.5 01:18:25 27° SSW 01:20:16 44° W 01:24:21 10° NNW
Okean 3 3.4 01:15:59 10° NNW 01:20:19 79° W 01:22:53 24° S
Cosmos 2219 Rocket 3.8 01:17:35 10° WNW 01:21:01 17° W 01:22:36 15° WSW
BREEZE-M DEB (TANK) 4.1 01:22:26 15° SE 01:22:26 15° SE 01:23:29 10° ESE
ARGOS Delta rocket 4.1 01:18:16 10° N 01:23:05 59° WNW 01:25:47 24° SW
ADEOS II 3.2 01:18:44 10° NNE 01:23:37 37° E 01:28:02 12° SSE
CZ-4 R/B 4.2 01:23:00 10° N 01:27:53 62° WNW 01:31:02 22° SW
Cosmos 1340 Rocket 3.2 01:27:12 26° SW 01:29:06 50° WNW 01:32:57 10° N
Cosmos 1743 2.8 01:33:42 23° S 01:36:00 71° E 01:39:50 10° NNE
NOSS 2-2 (D) 4.4 01:32:28 10° NW 01:37:34 58° SW 01:44:37 10° SSE
Cosmos 1269 Rocket 4.1 01:34:36 21° SW 01:38:08 72° WNW 01:43:26 10° NNE
AQUA 4.1 01:33:36 10° NNE 01:38:21 61° ESE 01:41:55 17° S
ASTEX 1 3.9 01:38:34 22° SSW 01:41:25 44° W 01:46:08 10° NNW
Meteor 1-28 Rocket 4.0 01:38:09 10° SSE 01:41:47 50° ENE 01:45:25 10° N
Helios 1B rocket 2.7 01:38:33 10° NNE 01:42:39 64° ESE 01:45:31 19° S
Cosmos 2219 3.3 01:42:03 20° SSW 01:46:11 84° ESE 01:51:59 10° NNE
Cosmos 2074 Rocket 4.1 01:43:17 15° S 01:48:37 76° E 01:54:51 10° NNE
Cosmos 1378 Rocket 4.5 01:46:34 10° N 01:50:52 48° ENE 01:55:05 10° SSE
Iridium 4 Rocket 4.1 01:48:13 10° N 01:53:32 62° E 01:59:12 10° SSE
Cosmos 2084 Rocket 4.0 01:50:13 10° WNW 01:54:04 35° SW 01:57:52 11° S
Cosmos 44 4.4 01:48:59 10° NW 01:54:15 53° NE 01:59:15 10° ESE
GEOS 3 Rocket 4.0 01:50:29 10° ESE 01:55:49 70° NE 02:01:06 10° NW
Cosmos 2181 Rocket 4.4 01:50:47 10° NNW 01:56:52 48° W 02:01:42 16° SSW
Cosmos 192 4.3 01:52:23 10° NNW 01:57:19 77° WSW 02:02:14 10° SSE
Cosmos 1707 4.2 01:53:45 10° N 01:57:22 36° ENE 02:00:55 10° SE
Meteor 1-11 Rocket 4.0 01:54:11 18° SW 01:58:13 54° WNW 02:03:39 10° N
Cosmos 1992 Rocket 4.3 01:55:07 10° NW 02:00:08 46° WSW 02:04:37 13° S
Aureole 2 Rocket 2.9 02:01:33 14° NW 02:01:33 14° NW 02:02:12 10° NNW
DELTA 2 DEB (DPAF) 4.2 01:59:20 10° SSE 02:03:45 80° ENE 02:08:14 10° NNW
ATLAS 5 CENTAUR R/B 3.5 02:02:33 10° WNW 02:06:53 22° WSW 02:10:22 15° SSW
Cosmos 2082 4.0 02:02:39 15° SSW 02:07:25 63° ESE 02:13:06 10° NE
MINOTAUR 4 R/B 4.0 02:05:02 13° S 02:08:11 69° WSW 02:11:47 10° NNW
Cosmos 1842 3.1 02:05:25 10° NNW 02:09:17 77° W 02:13:03 11° S
Cosmos 1733 Rocket 3.2 02:05:38 14° S 02:09:28 80° E 02:13:57 10° NNE
CZ-4C R/B 3.0 02:04:09 10° NW 02:11:08 87° NE 02:19:25 10° SE
Meteor 1-21 4.3 02:10:34 10° NNW 02:16:22 86° E 02:22:10 10° SSE
IDEFIX/ARIANE 42P 3.1 02:11:16 10° NNE 02:16:23 56° E 02:21:29 10° S
Cosmos 1536 4.1 02:15:44 14° WSW 02:18:24 28° WNW 02:21:54 10° N
Resurs 1-4 Rocket 2.7 02:15:41 10° N 02:20:45 46° WNW 02:25:12 13° SW
Cosmos 1356 Rocket 4.3 02:18:31 10° SSE 02:22:22 44° E 02:26:12 10° NNE
CBERS-1 4.3 02:19:11 10° NNE 02:24:19 67° ESE 02:29:25 10° S
Meteor 1-29 2.9 02:26:58 10° N 02:30:18 72° WNW 02:33:12 13° SSW
Cosmos 2251 Rocket 3.6 02:27:52 12° SSW 02:32:42 83° WNW 02:38:03 10° NNE
Cosmos 2237 Rocket 3.9 02:30:21 10° WNW 02:33:30 15° W 02:36:20 11° SW
Cosmos 2297 Rocket 2.9 02:28:17 11° WSW 02:33:34 45° NW 02:39:01 10° NNE
NPP 4.2 02:28:42 10° N 02:33:49 46° WNW 02:38:43 11° SW
Cosmos 1340 3.9 02:34:03 10° N 02:37:40 43° ENE 02:41:15 10° SE
Okean 2 3.5 02:34:51 10° NNW 02:39:00 63° W 02:43:07 10° S
Nadezhda 3 Rocket 4.2 02:33:01 10° NNW 02:39:16 59° W 02:45:28 10° S
Cosmos 1603 3.9 02:34:35 10° NNW 02:40:14 79° ENE 02:45:53 10° SE
SL-08 R/B 3.8 02:37:24 10° SSE 02:42:18 68° ENE 02:47:15 10° N
Cosmos 1238 Rocket 2.2 02:40:34 10° SSW 02:43:37 80° W 02:47:06 10° N
Cosmos 2227 Rocket 2.8 02:38:41 10° SW 02:44:06 48° NW 02:49:37 10° NNE
Cosmos 1626 4.0 02:42:39 10° N 02:46:02 33° ENE 02:49:25 10° SE
Spot 1 3.9 02:42:05 10° SSE 02:46:14 80° WSW 02:50:20 10° NNW
CZ-2C R/B 4.2 02:42:32 10° NE 02:46:27 27° E 02:50:20 10° SSE
Cosmos 1674 3.5 02:43:04 10° N 02:46:53 56° ENE 02:50:39 10° SSE
BREEZE-M DEB (TANK) 4.5 02:38:55 10° SW 02:47:49 35° SSE 02:51:02 10° E
Timation 2 Rocket 4.3 02:46:45 10° SW 02:52:38 57° NW 02:58:43 10° NNE
CZ-4C R/B 3.6 02:48:38 10° S 02:52:40 59° WSW 02:56:56 10° NNW
USA 267 3.5 02:46:57 10° ESE 02:53:30 77° NNE 03:00:03 10° WNW
CZ-2D R/B 3.4 02:50:15 10° N 02:54:45 28° WNW 02:59:18 10° WSW
Meteor 2-9 Rocket 4.3 02:51:44 10° SSW 02:56:57 57° WNW 03:02:15 10° N
SL-16 R/B 3.2 02:52:20 10° NW 02:56:58 26° WSW 03:01:35 10° SSW
Lacrosse 5 1.9 02:52:02 10° SW 02:57:07 83° SSE 03:02:12 10° ENE
NOSS 3-4 (A) 4.3 02:53:55 10° NW 03:00:36 66° NE 03:08:07 10° ESE
NOSS 3-4 (C) 4.4 02:54:01 10° NW 03:00:42 66° NE 03:08:14 10° ESE
Cosmos 1140 Rocket 3.7 02:55:33 10° SSW 03:00:46 74° ESE 03:06:02 10° NNE
ARIANE 5 R/B 2.9 02:56:54 10° NNE 03:02:02 67° ESE 03:07:12 10° S
ADEOS Rocket 4.1 02:58:31 10° SW 03:02:44 21° W 03:06:53 10° NW
SL-16 R/B 4.0 02:59:14 10° SW 03:03:20 18° W 03:07:27 10° NW
ADEOS II 2.8 02:58:26 10° N 03:03:22 41° WNW 03:08:16 10° SW
CZ-4B R/B 4.0 02:59:40 10° NNE 03:04:33 59° ESE 03:09:17 10° S
IRS-1C 4.2 03:00:48 10° NNE 03:06:11 85° ESE 03:11:32 10° SSW
ATLAS 2AS CENTAUR R/B 3.9 03:02:56 10° NW 03:10:18 51° NNE 03:17:06 10° ESE
NOSS 3-3 (A) 4.5 03:06:42 10° SSW 03:12:21 55° SE 03:18:49 10° NE
NOSS 3-3 (C) 4.5 03:06:50 10° SSW 03:12:27 54° SE 03:18:54 10° NE
Cosmos 2263 Rocket 2.5 03:06:49 10° SSW 03:12:28 73° ESE 03:18:10 10° NNE
